Regional Weather Roundup
Issued by NWS Charleston, SC

Current Version | Previous Version | Text Only | Print | Product List | Glossary Off
Versions: 1 2 3 4 5 6 7 8 9 10 11 12 13 14 15 16 17 18 19 20 21 22 23 24 25 26 27 28 29 30 31 32 33 34 35 36 37 38 39 40 41 42 43 44 45 46 47 48 49 50
796 ASUS42 KCHS 192327 RWRCHS REGIONAL WEATHER ROUNDUP NATIONAL WEATHER SERVICE CHARLESTON SC 700 PM EDT THU OCT 19 2017 NOTE: "FAIR" INDICATES FEW OR NO CLOUDS BELOW 12,000 FEET WITH NO SIGNIFICANT WEATHER AND/OR OBSTRUCTIONS TO VISIBILITY. NOT ALL STATIONS ARE QUALITY CONTROLLED. USE DATA WITH CAUTION... ESPECIALLY DEWPOINT OBSERVATIONS. SCZ027-030-031-034>040-042>050-200000- ...SOUTHEAST SOUTH CAROLINA... CITY SKY/WX TMP DP RH WIND PRES REMARKS N CHARLESTON CLEAR 67 58 72 N7 30.18S WATERFRONT PRK NOT AVBL JOHNS ISLAND FAIR 68 63 83 CALM 30.19R PINOPOLIS N/A 75 61 60 N7 30.12S MONCKS CORNER FAIR 63 61 94 CALM 30.20R SUMMERVILLE FAIR 64 59 82 CALM 30.21R BEAUFORT MCAS CLEAR 73 62 68 MISG 30.18S BEAUFORT ARPT FAIR 70 61 73 CALM 30.19R HILTON HEAD IS CLEAR 72 63 73 NE5 N/A WALTERBORO CLEAR 63 55 77 CALM 30.21R ALLENDALE N/A 68 54 60 CALM N/A ...SOUTHERN MIDLANDS AND PEE DEE... CITY SKY/WX TMP DP RH WIND PRES REMARKS GEORGETOWN FAIR 63 63 100 CALM 30.20R KINGSTREE FAIR 61 57 88 CALM 30.21R ORANGEBURG CLEAR 70 53 54 NE3 30.20S BARNWELL N/A 66 55 68 CALM 30.20S AIKEN FAIR 66 50 55 CALM 30.25S MANNING HAZE 63 18 17 MISG 30.21R VSB<1/4 COLUMBIA PTCLDY 67 55 65 W5 30.20S SUMTER CLEAR 68 52 56 CALM 30.18S FLORENCE CLEAR 66 55 67 N3 30.20S MYRTLE BEACH CLEAR 71 63 75 CALM 30.20R N MYRTLE BEACH CLEAR 68 63 84 CALM 30.18S $$ GAZ063-065-086>088-099>101-113>116-118-119-134>141-150-200000- ...SOUTHEAST GEORGIA... CITY SKY/WX TMP DP RH WIND PRES REMARKS SAVANNAH ARPT PTCLDY 74 58 57 E6 30.18R HUNTER AAF CLEAR 72 60 67 E6 30.16R FORT STEWART CLEAR 71 61 71 NE3 30.16R STATESBORO CLEAR 67 53 61 CALM 30.20R SYLVANIA CLEAR 67 60 78 CALM 30.20R CLAXTON FAIR 67 63 86 CALM 30.19R ...CSRA...CENTRAL AND FAR SOUTHEAST GEORGIA... CITY SKY/WX TMP DP RH WIND PRES REMARKS THOMSON CLEAR 62 52 69 CALM 30.27R AUGUSTA-BUSH CLEAR 65 55 70 CALM 30.20R AUGUSTA-DANIEL CLEAR 75 48 38 E3 30.21S SWAINSBORO FAIR 64 55 72 CALM 30.21R VIDALIA CLEAR 70 57 64 N3 30.19S EASTMAN FAIR 68 47 47 CALM 30.22R HAZLEHURST FAIR 69 51 52 CALM 30.18R ALMA CLEAR 72 61 68 CALM 30.17R WAYCROSS CLEAR 73 58 57 E3 30.17R JESUP NOT AVBL BAXLEY FAIR 68 59 73 CALM 30.18R BRUNSWICK CLEAR 70 59 68 NE6 30.18S SAINT SIMONS PTCLDY 74 61 63 NE9 30.16S $$ SCZ027-028-034-036>038-045-046-048>050-GAZ119-141-200000- ...LAKE AND SUPPLEMENTAL COASTAL OBSERVATIONS... STATION/POSITION TIME TEMP WIND PRES WAVE SWELL AIR SEA DIR/SP/G HT/PER HT/PER/DIR (UTC) (F) (DEG/KT/KT) (MB) (FT/S) (FT/S/D) WINYAH BAY 2245 71 20/ 1 1022.0S LAKE MURRAY 2320 69 310/ 4/ 5 1022.4 ACE BASIN NERRS 2245 72 CALM 1022.0S FORT PULASKI 2300 74 74 80/ 9/ 10 1022.3 SAPELO ISLAND 2300 72 60/ 5 1022.0 $$ ANZ835-935-AMZ111-154-330-350-352-354-370-450-454-472-200000- ...C-MAN AND BUOY OBSERVATIONS... STATION/POSITION TIME TEMP WIND PRES WAVE SWELL AIR SEA DIR/SP/G HT/PER HT/PER/DIR (UTC) (F) (DEG/KT/KT) (MB) (FT/S) (FT/S/D) BUOY 41004 2310 76 80 20/ 14/ 17 1021.0 BUOY 41008 2250 75 77 60/ 16/ 19 1020.9R 6/ 9 3/120/ 9 FOLLY BEACH CMAN 2300 73 50/ 9/ 10 1022.6R CAPERS NEARSHORE 2308 70 73 60/ 12/ 16 1021.6R FRIPP NEARSHORE 2308 75 60/ 10/ 14 N/A STATION/POSITION TIME TEMP WIND PRES WAVE SWELL AIR SEA DIR/SP/G HT/PER HT/PER/DIR (UTC) (F) (DEG/KT/KT) (MB) (FT/S) (FT/S/D) 5E ST. MARYS GA 2300 77 N/A 6/ 6 FRYING PAN BUOY 2310 75 76 40/ 14/ 17 1021.5 BUOY 41025 2250 74 81 30/ 8/ 10 1021.7R 4/ 8 5/110/ 8 CAPE LOOKOUT NC 2300 72 40/ 5/ 5 1021.8R BUOY 41002 2250 78 80 40/ 17/ 21 1018.4R 6/ 8 3/ 80/ 8 BUOY 41010 NOT AVBL ST AUGUSTINE FL 2300 76 78 40/ 22/ 24 1020.0R $$

USA.gov is the U.S. government's official web portal to all federal, state and local government web resources and services.